Flag for Grenada Weather past 2 weeks in Saint George's, Grenada

Now
79 °F

Passing clouds.


Feels Like: 83 °F
Forecast: 76 / 82 °F
Wind: 15 mph from Southeast

Location: Point Salines Airport

Current Time: Aug 28, 2014 at 9:17:09 PM

Latest Report: Aug 28, 2014 at 9:00 PM


Visibility: N/A

Pressure: 29.98 "Hg

Humidity: 94%

Dew point: 77 °F

Location of Saint George'sLocation

Historic Weather in Saint George's — Graph

°F

Saint George's temperature yesterday

Maximum temperature yesterday: 84 °F (at 10:00 AM)
Minimum temperature yesterday: 77 °F (at 5:00 AM)
Average temperature yesterday: 82 °F

Past Weeks' High & Low Weather Summary

 TemperatureHumidityPressure
High90 °F (Aug 19, 4:00 PM)100% (Aug 15, 11:00 PM)30.01 "Hg (Aug 15, 11:00 PM)
Low77 °F (Aug 16, 1:00 AM)45% (Aug 23, 12:00 AM)29.80 "Hg (Aug 21, 4:00 PM)
Average83 °F84%29.91 "Hg
* Reported Aug 13 8:00 PM — Aug 28 8:00 PM, Saint George's, Weather by CustomWeather, © 2014

Note: Actual official high and low records may vary slightly from our data, if they occured in-between our weather recording intervals... More about our weather records

Advertising

Saint George's weather history for previous 24 hours

 ConditionsComfort  
Time TempWeatherWind HumidityBarometerVisibility
8:00 PM
Aug 28
81 °FPassing clouds.15 mph89%29.95 "HgN/A
7:00 PM79 °FPassing clouds.12 mph94%29.92 "HgN/A
6:00 PM82 °FRain showers. Scattered clouds.23 mph79%29.92 "Hg6 mi
5:00 PM84 °FScattered clouds.20 mph79%29.89 "HgN/A
4:00 PM84 °FScattered clouds.20 mph84%29.89 "HgN/A
3:00 PM86 °FScattered clouds.23 mph75%29.89 "HgN/A
2:00 PM86 °FScattered clouds.24 mph79%29.92 "HgN/A
1:00 PM86 °FScattered clouds.20 mph75%29.92 "HgN/A
12:00 PM86 °FPartly sunny.21 mph75%29.95 "HgN/A
11:00 AM86 °FPartly sunny.26 mph79%29.95 "HgN/A
10:00 AM86 °FPassing clouds.23 mph79%29.95 "HgN/A
9:00 AM84 °FScattered clouds.17 mph79%29.95 "HgN/A
8:00 AM82 °FScattered clouds.18 mph84%29.95 "HgN/A
7:00 AM82 °FScattered clouds.18 mph89%29.92 "HgN/A
6:00 AM82 °FScattered clouds.13 mph84%29.92 "HgN/A
5:00 AM82 °FPassing clouds.16 mph84%29.92 "HgN/A
4:00 AM82 °FPassing clouds.15 mph89%29.89 "HgN/A
3:00 AM82 °FPassing clouds.16 mph84%29.89 "HgN/A
2:00 AM82 °FPassing clouds.14 mph84%29.92 "HgN/A
1:00 AM82 °FPassing clouds.16 mph89%29.92 "HgN/A
12:00 AM82 °FPassing clouds.13 mph84%29.95 "HgN/A
11:00 PM
Aug 27
82 °FSprinkles. Passing clouds.12 mph89%29.95 "HgN/A
10:00 PM82 °FPassing clouds.8 mph84%29.95 "HgN/A
9:00 PM82 °FPassing clouds.9 mph84%29.95 "HgN/A
Weather by CustomWeather, © 2014

See weather overviewHow to use our weather pages